[[{"header":{"parameterUnit":"m.s-1","parameterCategory":1,"la1":30.2991,"la2":30.254,"lo1":-89.0895,"lo2":-89.0444,"dy":0.0017,"dx":0.0017,"nx":28,"ny":28,"refTime":"2025-09-02T21:00:00:Z","depth":0,"parameterNumber":2,"parameterNumberName":"U-component_of_WINDS"},"data":[0,0,0,0,0,0,0,0,0,0,0,0,0,0,0,0,0,0,0,0,0,0,0,0,0,0,0,0,0,0,0,0,0,0,0,0,0,0,0,0,0,0,0,0,0,0,0,0,0,0,0,0,0,0,0,0,0,0,1.1287,1.1288,0,1.1305,1.1306,1.1306,1.1314,1.1314,1.1314,1.1314,1.1334,1.1334,1.1335,0,0,0,0,0,0,0,0,0,0,0,0,0,1.1261,1.1261,1.1287,1.1288,1.1288,1.1305,1.1306,1.1306,1.1314,1.1314,1.1314,1.1314,1.1333,1.1334,1.1335,0,0,0,0,0,0,0,0,0,0,0,0,0,1.1275,1.1262,1.1287,1.1294,1.1295,1.1305,1.1306,1.1306,1.1314,1.1314,1.1314,1.1314,1.1333,1.1334,1.1335,1.134,0,0,1.1337,1.1338,0,0,0,0,0,0,0,0,1.1274,1.1276,1.1293,1.1294,1.1295,1.1308,1.1303,1.1317,1.1314,1.1307,1.1314,1.1314,1.1325,1.1326,1.133,1.1341,1.1342,1.1337,1.1338,1.1338,1.1338,0,0,0,0,0,0,0,1.1273,1.1275,1.1295,1.1293,1.1294,1.1297,1.1298,1.1306,1.1316,1.1308,1.1308,1.131,1.1325,1.1329,1.133,1.1342,1.1337,1.1338,1.1338,1.1339,1.1359,1.1359,0,0,0,0,0,0,1.1271,1.1274,1.1294,1.1295,1.1284,1.1297,1.1299,1.1303,1.1316,1.1318,1.131,1.1311,1.1328,1.133,1.1331,1.1338,1.1338,1.1339,1.1339,1.1359,1.1359,1.1359,0,0,0,0,0,0,1.127,1.1273,1.1293,1.1285,1.1288,1.1297,1.1302,1.1304,1.1307,1.1318,1.132,1.1312,1.1328,1.133,1.1338,1.1339,1.1339,1.134,1.1359,1.1359,1.1359,1.1353,0,0,0,0,0,0,1.127,1.1272,1.1274,1.1285,1.1288,1.1299,1.1302,1.1304,1.1309,1.1309,1.132,1.1322,1.1328,1.1337,1.1339,1.134,1.1341,1.1359,1.1359,1.1359,1.1353,1.1353,1.1352,0,0,0,0,0,1.1269,1.1272,1.1274,1.1277,1.1291,1.1299,1.1301,1.1308,1.1309,1.1311,1.1318,1.1322,1.1339,1.1337,1.134,1.1342,1.1359,1.1359,1.1359,1.1353,1.1353,1.1352,0,0,0,0,0,0,1.1262,1.1273,1.1276,1.1283,1.129,1.1301,1.1304,1.1307,1.1314,1.1315,1.1323,1.1325,1.1333,1.1338,1.1336,1.1348,1.1349,1.135,1.1344,1.1344,1.1343,1.1342,1.1341,0,0,0,0,0,1.1261,1.1266,1.1277,1.1282,1.1285,1.1294,1.1298,1.1302,1.131,1.1313,1.132,1.1328,1.1335,1.134,1.1347,1.1354,1.1356,1.1356,1.1356,1.1356,1.1356,1.136,1.136,1.1359,1.1359,1.1359,0,0,1.1259,1.1266,1.127,1.128,1.1286,1.1293,1.1296,1.1302,1.1307,1.1314,1.1322,1.1327,1.1337,1.1344,1.1348,1.1349,1.1357,1.1356,1.1355,1.1356,1.136,1.1361,1.1361,1.1359,1.1359,1.1359,0,0,1.1259,1.1265,1.127,1.1276,1.1285,1.1291,1.1292,1.1302,1.1306,1.1314,1.1319,1.1325,1.1337,1.1344,1.1348,1.1351,1.1355,1.1353,1.1352,1.1356,1.1356,1.1356,1.1357,1.1358,1.1354,1.1354,1.1354,0,1.1256,1.1265,1.1272,1.1278,1.1283,1.129,1.1295,1.13,1.1311,1.1314,1.1315,1.1331,1.1337,1.1346,1.1347,1.1351,1.1352,1.1352,1.1355,1.1356,1.1356,1.1357,1.1358,1.1353,1.1353,1.1353,1.1353,0,1.1261,1.1268,1.1271,1.1281,1.1286,1.1291,1.1299,1.1304,1.1308,1.1314,1.1322,1.133,1.1339,1.1341,1.1346,1.1351,1.1351,1.1354,1.1355,1.1356,1.1357,1.1357,1.1353,1.1353,1.1353,1.1353,0,0,1.1257,1.1271,1.1272,1.1277,1.1288,1.1293,1.1299,1.1307,1.1311,1.1318,1.1324,1.1334,1.1336,1.1342,1.1347,1.135,1.1352,1.1352,1.1353,1.1352,1.1359,1.1357,1.1357,1.1355,1.1355,1.1355,1.1358,0,1.1259,1.127,1.1276,1.1285,1.1291,1.1297,1.1302,1.131,1.1315,1.1321,1.1328,1.1335,1.1337,1.134,1.1344,1.1351,1.1354,1.1351,1.136,1.136,1.1358,1.1358,1.1356,1.1359,1.1359,1.1359,1.1359,0,1.1262,1.127,1.1278,1.1288,1.1291,1.1296,1.1304,1.131,1.1318,1.1322,1.1328,1.1333,1.134,1.1341,1.1351,1.1349,1.1353,1.1357,1.1357,1.1359,1.136,1.1359,1.136,1.136,1.136,1.136,1.136,0,1.1259,1.1271,1.1277,1.1281,1.1293,1.1296,1.1301,1.131,1.1315,1.1322,1.1325,1.1334,1.1338,1.1345,1.1352,1.1352,1.1361,1.1363,1.1364,1.1364,1.1366,1.1366,1.1367,1.1369,1.1369,1.1369,1.1369,0,1.126,1.1265,1.1276,1.128,1.1286,1.1294,1.13,1.1306,1.1313,1.1319,1.1325,1.133,1.1339,1.1346,1.1351,1.1359,1.1361,1.1364,1.1366,1.1364,1.1363,1.1367,1.1367,1.1369,1.1369,1.1369,1.1369,0,1.1257,1.1264,1.1272,1.1283,1.1286,1.129,1.1299,1.1303,1.1309,1.1316,1.1319,1.1328,1.1336,1.1344,1.1354,1.1358,1.1366,1.1368,1.1363,1.1363,1.1365,1.1365,1.1369,1.1369,1.137,1.137,1.137,0,1.1257,1.1261,1.1273,1.1277,1.1282,1.1288,1.1293,1.1301,1.1306,1.1316,1.1319,1.1327,1.1335,1.1347,1.1355,1.1363,1.1365,1.1366,1.1367,1.1365,1.1365,1.1365,1.1366,1.1366,1.1366,1.1366,1.1366,0,1.1257,1.1261,1.1267,1.1276,1.1281,1.1288,1.1295,1.1298,1.1307,1.1313,1.1321,1.1326,1.1337,1.1345,1.1355,1.136,1.1365,1.1365,1.1366,1.1364,1.1361,1.1363,1.1362,1.1365,1.1365,1.1365,1.1365,1.1365,1.1256,1.126,1.1268,1.1276,1.1282,1.1288,1.1293,1.13,1.1307,1.1316,1.132,1.1328,1.1337,1.135,1.1355,1.1362,1.1363,1.1364,1.1365,1.1365,1.1364,1.136,1.1364,1.1364,1.1364,1.1364,1.1364,0,1.1256,1.1262,1.1269,1.1278,1.1284,1.1288,1.1296,1.1301,1.1308,1.1315,1.1322,1.1331,1.1339,1.1348,1.1357,1.136,1.1363,1.1362,1.1362,1.1363,1.1363,1.1361,1.136,1.136,1.136,1.136,1.136,1.136,1.1257,1.1264,1.1269,1.1279,1.1285,1.1293,1.1297,1.1303,1.1309,1.1319,1.1326,1.1332,1.134,1.1349,1.1357,1.1359,1.1362,1.1361,1.1364,1.1363,1.1363,1.1364,1.1362,1.1362,1.1362,1.1364,1.1364,1.1364]},{"header":{"parameterUnit":"m.s-1","parameterCategory":1,"la1":30.2991,"la2":30.254,"lo1":-89.0895,"lo2":-89.0444,"dy":0.0017,"dx":0.0017,"nx":28,"ny":28,"refTime":"2025-09-02T21:00:00:Z","depth":0,"parameterNumber":3,"parameterNumberName":"V-component_of_WINDS"},"data":[0,0,0,0,0,0,0,0,0,0,0,0,0,0,0,0,0,0,0,0,0,0,0,0,0,0,0,0,0,0,0,0,0,0,0,0,0,0,0,0,0,0,0,0,0,0,0,0,0,0,0,0,0,0,0,0,0,0,0.368,0.368,0,0.3667,0.3667,0.3666,0.3697,0.3698,0.3699,0.37,0.3683,0.3682,0.3681,0,0,0,0,0,0,0,0,0,0,0,0,0,0.3727,0.3726,0.368,0.368,0.3679,0.3667,0.3667,0.3666,0.3697,0.3698,0.3699,0.37,0.3684,0.3682,0.368,0,0,0,0,0,0,0,0,0,0,0,0,0,0.371,0.3726,0.368,0.3693,0.3694,0.3667,0.3667,0.3666,0.3696,0.3698,0.3699,0.3701,0.3684,0.3682,0.368,0.3638,0,0,0.3674,0.3673,0,0,0,0,0,0,0,0,0.3711,0.3708,0.3691,0.3692,0.3693,0.3685,0.3677,0.3657,0.3696,0.3695,0.37,0.3701,0.3682,0.3681,0.3675,0.3638,0.3637,0.3674,0.3673,0.3672,0.3671,0,0,0,0,0,0,0,0.3712,0.3708,0.3674,0.3691,0.3692,0.3698,0.3698,0.3674,0.3681,0.3696,0.3698,0.3696,0.3683,0.3677,0.3675,0.3637,0.3674,0.3672,0.3671,0.367,0.3563,0.3561,0,0,0,0,0,0,0.3712,0.3709,0.3675,0.3674,0.3706,0.3696,0.3695,0.3686,0.3681,0.3682,0.3695,0.3697,0.3679,0.3677,0.3674,0.3624,0.3672,0.367,0.3669,0.3565,0.3563,0.3561,0,0,0,0,0,0,0.3713,0.3708,0.3675,0.3692,0.3689,0.3694,0.3683,0.3685,0.3679,0.3681,0.3682,0.3687,0.368,0.3677,0.3647,0.3624,0.3669,0.3667,0.3566,0.3564,0.3562,0.3523,0,0,0,0,0,0,0.3714,0.3709,0.3694,0.3692,0.3688,0.3649,0.3682,0.3684,0.3675,0.3679,0.3674,0.3674,0.3681,0.365,0.3645,0.3622,0.3665,0.3569,0.3565,0.3562,0.3527,0.352,0.3514,0,0,0,0,0,0.3715,0.3683,0.3693,0.3688,0.3669,0.3648,0.3645,0.3655,0.3674,0.3658,0.3659,0.3674,0.3627,0.3646,0.3641,0.3617,0.357,0.3566,0.3563,0.353,0.3521,0.3514,0,0,0,0,0,0,0.3681,0.3683,0.3694,0.366,0.3654,0.3653,0.3634,0.3647,0.3634,0.3638,0.365,0.3648,0.3615,0.3613,0.3635,0.3576,0.3602,0.3597,0.3578,0.357,0.3564,0.3565,0.3664,0,0,0,0,0,0.3669,0.3653,0.3655,0.3625,0.3622,0.3628,0.3619,0.3628,0.3621,0.3618,0.3617,0.3609,0.3593,0.3582,0.3567,0.3527,0.3525,0.3508,0.3501,0.3496,0.3491,0.3469,0.3461,0.3549,0.3549,0.3549,0,0,0.3645,0.3644,0.3633,0.3618,0.3614,0.3596,0.3626,0.3605,0.3591,0.3615,0.3586,0.3585,0.3577,0.3542,0.3526,0.3539,0.3467,0.3492,0.3487,0.3485,0.3464,0.3456,0.3449,0.3546,0.3547,0.3547,0,0,0.3592,0.359,0.3564,0.356,0.3554,0.3558,0.3552,0.355,0.355,0.3522,0.3539,0.3522,0.3494,0.3487,0.348,0.3423,0.3436,0.3418,0.3384,0.3362,0.3355,0.3349,0.3328,0.332,0.3413,0.3413,0.3413,0,0.3562,0.3536,0.3549,0.3527,0.3519,0.3541,0.3514,0.3509,0.3498,0.3491,0.3506,0.3471,0.3467,0.343,0.3416,0.341,0.3402,0.3418,0.3356,0.335,0.3344,0.3324,0.3316,0.3411,0.3411,0.3411,0.3412,0,0.3499,0.3481,0.3461,0.345,0.344,0.3416,0.3424,0.3412,0.3421,0.3424,0.3394,0.339,0.3374,0.3366,0.3375,0.333,0.3338,0.3354,0.338,0.3333,0.3314,0.3306,0.3408,0.3408,0.3409,0.341,0,0,0.3423,0.342,0.3412,0.3408,0.3402,0.3388,0.3364,0.3349,0.3338,0.333,0.3309,0.3284,0.3299,0.3291,0.3299,0.328,0.3233,0.3298,0.3298,0.3285,0.3182,0.3169,0.316,0.3242,0.3241,0.324,0.3182,0,0.3369,0.333,0.334,0.33,0.3282,0.3302,0.3281,0.3275,0.3276,0.3261,0.3262,0.3244,0.3266,0.3261,0.3243,0.3243,0.3212,0.3247,0.3222,0.3221,0.3222,0.315,0.3136,0.3082,0.3175,0.3174,0.3173,0,0.3301,0.3291,0.3249,0.3246,0.3239,0.322,0.3207,0.3192,0.3185,0.3187,0.3178,0.3189,0.3164,0.3191,0.3156,0.3179,0.317,0.3168,0.3166,0.3163,0.3193,0.3144,0.3065,0.3056,0.3161,0.3162,0.3163,0,0.3248,0.3224,0.3195,0.3191,0.3187,0.3173,0.317,0.3165,0.3155,0.3143,0.3137,0.3122,0.3113,0.3101,0.3107,0.3127,0.307,0.3098,0.307,0.307,0.3056,0.3057,0.2974,0.3052,0.3052,0.3052,0.3053,0,0.3186,0.316,0.3171,0.3154,0.3124,0.3136,0.3105,0.3105,0.31,0.3081,0.3098,0.308,0.309,0.3073,0.3078,0.3047,0.3043,0.3043,0.3044,0.3041,0.3041,0.3034,0.3037,0.305,0.3051,0.3051,0.3052,0,0.3122,0.3129,0.3099,0.3098,0.3097,0.3075,0.3073,0.3056,0.3059,0.3035,0.303,0.3034,0.3015,0.302,0.2998,0.3002,0.2962,0.2969,0.2965,0.2966,0.2937,0.2939,0.2846,0.2833,0.2921,0.292,0.2919,0,0.3081,0.3061,0.3058,0.3047,0.3044,0.3027,0.3017,0.3027,0.3016,0.3006,0.299,0.2972,0.2958,0.2925,0.2925,0.2908,0.2914,0.2882,0.2911,0.2908,0.2912,0.2912,0.291,0.2876,0.2875,0.2874,0.2873,0,0.3008,0.3012,0.2998,0.2985,0.2973,0.2963,0.2954,0.2944,0.2954,0.294,0.2921,0.291,0.2888,0.2869,0.2854,0.285,0.2862,0.2864,0.2857,0.2852,0.285,0.285,0.2948,0.2866,0.2867,0.2867,0.2868,0.2868,0.2953,0.2936,0.2931,0.2914,0.2909,0.29,0.2884,0.2885,0.2869,0.2853,0.286,0.2837,0.2829,0.281,0.2804,0.2785,0.2797,0.2786,0.2783,0.278,0.2776,0.2854,0.2783,0.2783,0.2783,0.2783,0.2783,0,0.288,0.2878,0.2862,0.285,0.2836,0.2851,0.2842,0.2829,0.2809,0.2801,0.2787,0.2764,0.2746,0.2745,0.2727,0.2712,0.2717,0.2707,0.2707,0.2706,0.2767,0.2775,0.2703,0.2703,0.2703,0.2703,0.2703,0.2703,0.284,0.2811,0.2815,0.2783,0.278,0.2759,0.2752,0.2744,0.2738,0.2711,0.2696,0.2696,0.2691,0.2673,0.2656,0.2656,0.2648,0.2635,0.2637,0.2694,0.2702,0.2709,0.2717,0.2634,0.2634,0.2578,0.2577,0.2577]}]]